Tracking 30306 objects as of 23-Apr-2025
HD Live streaming from Space Station
objects crossing your sky now

O3B FM16

Track O3B FM16 now!
10-day predictions
O3B FM16 is classified as:


NORAD ID: 43232
Int'l Code: 2018-024B
Perigee: 8,068.7 km
Apogee: 8,077.4 km
Inclination: 0.1 °
Period: 287.9 minutes
Semi major axis: 14444 km
RCS: Unknown
Launch date: March 9, 2018
Source: O3b Networks (O3B)
Launch site: FRENCH GUIANA (FRGUI)
Your satellite tracking list
Your tracking list is empty




NASA's NSSDC Master Catalog

Two Line Element Set (TLE):
1 43232U 18024B   25112.77546294 -.00000014  00000-0  00000-0 0  9990
2 43232   0.0589 356.0692 0003029  38.5632 325.3884  5.00115596129906
Source of the keplerian elements: AFSPC